Hourly Data Report for July 19, 2004

TORONTO CITY
ONTARIO

43°40'00.000" N
79°24'00.000" W
112.50 m
6158355
71508
XTO

Download Data

Hourly Data (July 2004)
Hourly Data Report for July 19, 2004
TIME
LST
Temp Definition
°C
Dew Point Definition
°C
Rel Hum Definition
%
Precip. Amount Definition
mm

Wind Dir Definition
10's deg

Wind Spd Definition
km/h
Visibility Definition
km
Stn Press Definition
kPa
Hmdx Definition


Wind Chill Definition


Weather Definition


00:00 20.3 18.2 88   LegendMM LegendMM LegendMM 99.78 26   LegendNANA
01:00 20.0 17.8 87   LegendMM LegendMM LegendMM 99.72 26   LegendNANA
02:00 19.5 17.7 89   LegendMM LegendMM LegendMM 99.67     LegendNANA
03:00 19.6 17.9 90   LegendMM LegendMM LegendMM 99.64     LegendNANA
04:00 19.5 17.9 90   LegendMM LegendMM LegendMM 99.65     LegendNANA
05:00 19.2 17.7 91   LegendMM LegendMM LegendMM 99.67     LegendNANA
06:00 19.7 17.9 89   LegendMM LegendMM LegendMM 99.66     LegendNANA
07:00 20.4 18.0 86   LegendMM LegendMM LegendMM 99.66 26   LegendNANA
08:00 21.8 17.9 79   LegendMM LegendMM LegendMM 99.67 28   LegendNANA
09:00 22.6 18.0 75   LegendMM LegendMM LegendMM 99.66 29   LegendNANA
10:00 24.0 17.8 68   LegendMM LegendMM LegendMM 99.67 30   LegendNANA
11:00 23.3 18.2 73   LegendMM LegendMM LegendMM 99.66 29   LegendNANA
12:00 24.0 18.0 69   LegendMM LegendMM LegendMM 99.63 30   LegendNANA
13:00 22.2 18.6 80   LegendMM LegendMM LegendMM 99.60 29   LegendNANA
14:00 22.5 17.9 75   LegendMM LegendMM LegendMM 99.56 28   LegendNANA
15:00 21.3 18.1 82   LegendMM LegendMM LegendMM 99.57 27   LegendNANA
16:00 22.9 17.3 71   LegendMM LegendMM LegendMM 99.53 28   LegendNANA
17:00 22.2 17.9 77   LegendMM LegendMM LegendMM 99.59 28   LegendNANA
18:00 22.8 18.0 74   LegendMM LegendMM LegendMM 99.56 29   LegendNANA
19:00 22.5 17.1 72   LegendMM LegendMM LegendMM 99.57 28   LegendNANA
20:00 20.7 17.5 82   LegendMM LegendMM LegendMM 99.57 26   LegendNANA
21:00 19.7 18.1 90   LegendMM LegendMM LegendMM 99.62     LegendNANA
22:00 19.4 18.5 95   LegendMM LegendMM LegendMM 99.65     LegendNANA
23:00 19.2 18.4 95   LegendMM LegendMM LegendMM 99.66     LegendNANA

Notes on Data Quality.

Legend

  • E = Estimated
  • M = Missing
  • NA = Not Available*
  • [empty] = Indicates an unobserved value
Date modified: